Location: Ellingshausen
(50.5460°N, 10.4723°E)
Time: 13:50:03
(UTC+00:00)

GP-B - Pass Details

Date: 18 January 2026
Orbit: 618 x 622 km, 89.8° (Epoch: 16 February)

Event Time Altitude Azimuth Distance (km) Brightness Sun altitude
Rises 06:26:18 0° 5° (N) 2,910 6.3 -7.0°
Reaches altitude 10° 06:28:35 10° 11° (N) 1,998 5.5 -6.7°
Maximum altitude 06:32:51 50° 87° (E) 791 4.1 -6.1°
Drops below altitude 10° 06:37:05 10° 163° (SSE) 1,980 6.3 -5.5°
Sets 06:39:20 0° 169° (S) 2,880 7.1 -5.1°
